Weather History for Kristianstad, Sweden

Change the Weather History Date:

Wednesday, February 6, 2013

  Actual Average (EKCH) Record (EKCH)
Temperature  
Mean Temperature 34 °F -  
Max Temperature 35 °F 37 °F 46 °F (2004)
Min Temperature 32 °F 29 °F 15 °F (2012)
Degree Days  
Heating Degree Days 32    
Moisture  
Dew Point 32 °F    
Average Humidity 95    
Maximum Humidity 100    
Minimum Humidity 87    
Precipitation  
Precipitation 0.00 in - - ()
Sea Level Pressure  
Sea Level Pressure 29.26 in    
Wind  
Wind Speed 7 mph ()    
Max Wind Speed 10 mph    
Max Gust Speed -    
Visibility 5.3 miles    
Events Snow    
Averages and records for this station are not official NWS values.
T = Trace of Precipitation, MM = Missing Value Source: Averaged Metar Reports

Daily Weather History Graph

Daily Weather History Graph

Search for Another Location

Airport:

Trip Planner

Search our weather history database for the weather conditions in past years. The results will help you decide how hot, cold, wet, or windy it might be!

Date:

Astronomy

Feb. 06, 2013 Rise Set
Actual Time 7:48 AM CET 4:48 PM CET
Civil Twilight 7:08 AM CET 5:28 PM CET
Nautical Twilight 6:23 AM CET 6:12 PM CET
Astronomical Twilight 5:40 AM CET 6:55 PM CET
Moon 4:38 AM CET (2/6) 12:24 PM CET (2/6)
Length of Visible Light 10h 20m
Length of Day
9h 00m
Waning Crescent, 19% of the Moon is Illuminated
Feb 6
Waning Crescent
Feb 10
New
Feb 17
First Quarter
Feb 25
Full
Mar 4
Last Quarter

Hourly Weather History & Observations

Time (CET) Temp. Windchill Dew Point Humidity Pressure Visibility Wind Dir Wind Speed Gust Speed Precip Events Conditions
12:20 AM 33.8 °F 29.6 °F 32.0 °F 93% 29.21 in 3.1 mi SSW 4.6 mph - N/A Snow Light Snow
12:50 AM 33.8 °F 28.6 °F 32.0 °F 93% 29.21 in 6.2 mi SSW 5.8 mph - N/A   Mostly Cloudy
1:20 AM 33.8 °F 27.0 °F 32.0 °F 93% 29.21 in 6.2 mi SW 8.1 mph - N/A   Mostly Cloudy
1:50 AM 33.8 °F 28.6 °F 33.8 °F 100% 29.21 in - SSW 5.8 mph - N/A Snow Light Snow
2:20 AM 33.8 °F 30.8 °F 33.8 °F 100% 29.21 in 0.6 mi SSW 3.5 mph - N/A Snow Light Snow
2:50 AM 33.8 °F 27.7 °F 33.8 °F 100% 29.21 in 6.2 mi SW 6.9 mph - N/A Snow Light Snow
3:20 AM 33.8 °F 27.7 °F 33.8 °F 100% 29.21 in 6.2 mi South 6.9 mph - N/A   Overcast
3:50 AM 33.8 °F 26.4 °F 33.8 °F 100% 29.18 in 6.2 mi SW 9.2 mph - N/A   Overcast
4:20 AM 33.8 °F 27.0 °F 33.8 °F 100% 29.18 in 5.0 mi SSW 8.1 mph - N/A Snow Snow Grains
4:50 AM 33.8 °F 27.7 °F 33.8 °F 100% 29.18 in 6.2 mi South 6.9 mph - N/A Snow Light Snow
5:20 AM 33.8 °F 27.0 °F 33.8 °F 100% 29.18 in 6.2 mi South 8.1 mph - N/A   Light Ice Pellets
5:50 AM 33.8 °F 27.0 °F 33.8 °F 100% 29.18 in 3.7 mi SSW 8.1 mph - N/A Snow Light Snow
6:20 AM 33.8 °F 27.0 °F 32.0 °F 93% 29.18 in 3.7 mi SSW 8.1 mph - N/A Snow Light Snow
6:50 AM 33.8 °F 27.7 °F 33.8 °F 100% 29.18 in - SSW 6.9 mph - N/A Snow Light Snow
7:20 AM 33.8 °F 27.7 °F 33.8 °F 100% 29.18 in 3.1 mi SW 6.9 mph - N/A Snow Light Snow
7:50 AM 33.8 °F 27.7 °F 33.8 °F 100% 29.18 in 3.1 mi WSW 6.9 mph - N/A Snow Light Snow
8:20 AM 33.8 °F 27.7 °F 32.0 °F 93% 29.18 in 6.2 mi West 6.9 mph - N/A Snow Light Snow
8:50 AM 33.8 °F 27.7 °F 32.0 °F 93% 29.18 in 6.2 mi West 6.9 mph - N/A   Scattered Clouds
9:20 AM 33.8 °F 27.7 °F 32.0 °F 93% 29.21 in 6.2 mi West 6.9 mph - N/A   Mostly Cloudy
9:50 AM 33.8 °F 28.6 °F 32.0 °F 93% 29.21 in 6.2 mi West 5.8 mph - N/A Snow Light Snow
10:20 AM 33.8 °F 27.0 °F 32.0 °F 93% 29.21 in 6.2 mi West 8.1 mph - N/A   Mostly Cloudy
10:50 AM 33.8 °F 27.0 °F 32.0 °F 93% 29.21 in 6.2 mi West 8.1 mph - N/A   Mostly Cloudy
11:20 AM 33.8 °F 27.0 °F 32.0 °F 93% 29.24 in 6.2 mi West 8.1 mph - N/A   Mostly Cloudy
11:50 AM 33.8 °F 27.0 °F 32.0 °F 93% 29.24 in 6.2 mi West 8.1 mph - N/A   Mostly Cloudy
12:20 PM 35.6 °F 29.9 °F 32.0 °F 87% 29.24 in 6.2 mi West 6.9 mph - N/A   Overcast
12:50 PM 35.6 °F 29.9 °F 32.0 °F 87% 29.24 in 6.2 mi West 6.9 mph - N/A   Mostly Cloudy
1:20 PM 33.8 °F 28.6 °F 32.0 °F 93% 29.24 in 6.2 mi West 5.8 mph - N/A   Mostly Cloudy
1:50 PM 33.8 °F 25.8 °F 32.0 °F 93% 29.24 in 0.9 mi WNW 10.4 mph - N/A Snow Light Snow Showers
2:20 PM 33.8 °F 28.6 °F 32.0 °F 93% 29.27 in 0.9 mi West 5.8 mph - N/A Snow Snow
2:50 PM 33.8 °F 27.7 °F 32.0 °F 93% 29.27 in 1.0 mi WNW 6.9 mph - N/A Snow Light Snow
3:20 PM 32.0 °F 24.2 °F 32.0 °F 100% 29.27 in 0.9 mi WNW 9.2 mph - N/A Snow Light Snow
3:50 PM 32.0 °F 24.8 °F 32.0 °F 100% 29.30 in 6.2 mi WNW 8.1 mph - N/A Snow Light Snow Grains
4:20 PM 32.0 °F 25.6 °F 30.2 °F 93% 29.30 in 6.2 mi WNW 6.9 mph - N/A   Overcast
4:50 PM 32.0 °F 24.2 °F 30.2 °F 93% 29.30 in 6.2 mi WNW 9.2 mph - N/A   Overcast
5:20 PM 32.0 °F 25.6 °F 30.2 °F 93% 29.33 in 6.2 mi West 6.9 mph - N/A   Overcast
5:50 PM 32.0 °F 24.8 °F 30.2 °F 93% 29.33 in 6.2 mi West 8.1 mph - N/A   Overcast
6:20 PM 32.0 °F 24.8 °F 30.2 °F 93% 29.33 in 6.2 mi West 8.1 mph - N/A   Overcast
6:50 PM 32.0 °F 24.2 °F 30.2 °F 93% 29.33 in 6.2 mi West 9.2 mph - N/A Snow Snow Grains
7:20 PM 32.0 °F 24.2 °F 30.2 °F 93% 29.33 in 6.2 mi West 9.2 mph - N/A Snow Light Snow Grains
7:50 PM 32.0 °F 24.2 °F 32.0 °F 100% 29.36 in 6.2 mi West 9.2 mph - N/A Snow Light Snow
8:20 PM 32.0 °F 24.2 °F 32.0 °F 100% 29.36 in 6.2 mi West 9.2 mph - N/A   Overcast
8:50 PM 32.0 °F 24.2 °F 32.0 °F 100% 29.36 in 6.2 mi West 9.2 mph - N/A   Overcast
9:20 PM 33.8 °F 27.0 °F 32.0 °F 93% 29.39 in 6.2 mi NW 8.1 mph - N/A   Overcast
9:50 PM 33.8 °F 27.0 °F 32.0 °F 93% 29.39 in 6.2 mi NW 8.1 mph - N/A   Overcast
10:20 PM 33.8 °F 27.0 °F 32.0 °F 93% 29.39 in 6.2 mi NW 8.1 mph - N/A   Overcast
10:50 PM 33.8 °F 27.0 °F 30.2 °F 87% 29.42 in 6.2 mi NW 8.1 mph - N/A   Overcast
11:20 PM 32.0 °F 24.8 °F 30.2 °F 93% 29.42 in 6.2 mi NW 8.1 mph - N/A   Overcast
11:50 PM 32.0 °F 25.6 °F 30.2 °F 93% 29.42 in 6.2 mi NW 6.9 mph - N/A   Overcast